Find Kuiper-00010

NORAD ID: 63726 Int'l Des: 2025-088 Owner: KUIP Country: US Constellation: amazon-leo operational
LEOCIRCULAR

当前视图

正在加载3D地球...

关于 Kuiper-00010

正在加载描述...

即将过境

Passes for default location (London). Set your location on the main map for personalized predictions.

高度历史

Loading altitude history...

两行轨道根数

1 63726U 25088C 26158.92752472 -.00000076 00000-0 19113-4 0 9990
2 63726 51.9024 44.0734 0000971 88.3567 271.7507 14.79928117 61097
Epoch: Jun 7, 2026 • Age: 11 hours

当前状态

高度 647.2 km
速度 7.53 km/s
星下点 -49.52°S, 105.62°W
发射日期 Apr 28, 2025
运行时间 1.1 years
类型 internet

技术详情

分类 Payload
质量 490.00 kg
干质量 490.00 kg
总质量 490.00 kg
长度 1.80 m
直径 0.70 m
跨度 5.00 m
形状 Box + 2 pan
制造商 KUIP
平台类型 Kuiper
阶段状态 In Orbit
所有者/国家 KUIP/US

Most Searched